BEIDOU-2 G3

Last updated on Wed Sep 17 2025 00:02:47 GMT+0000 (Coordinated Universal Time)

1 36590U 10024A 25259.61094225 -.00000152 00000+0 00000+0 0 9999 2 36590 3.8641 62.3131 0004212 351.9649 241.0250 1.00269974 56024
UTC large
Height (km)
Speed (km/s)
/
Latitude / Longitude
Inclination (degrees)
Orbital Period (minutes)
Azimuth
Elevation
Range (km)
Doppler Factor

Next 0 passes for location: London (51.5072 / 0.1276)

Sorry there are no passes over London.